Location: Aldenham
(51.6667°N, 0.3500°W)
Time: 09:12:48
(UTC+00:00)

Transit 2A Rocket - All Passes

Search period start: 17 February 2026 00:00
Search period end: 27 February 2026 00:00
Orbit: 582 x 901 km, 66.7° (Epoch: 16 February)

Date Brightness Start Highest point End Pass type
(mag) Time Alt. Az. Time Alt. Az. Time Alt. Az.
17 Feb - 01:32:38 10° NW 01:37:42 37° WSW 01:42:21 10° S night (unlit)
17 Feb - 14:31:22 10° ESE 14:33:09 11° E 14:34:57 10° E daylight
17 Feb - 16:08:32 10° SSW 16:14:23 55° ESE 16:20:12 10° NE daylight
17 Feb - 17:51:17 10° WSW 17:57:03 44° NW 18:02:41 10° NNE visible
17 Feb - 19:36:30 10° WNW 19:40:56 21° NNW 19:45:14 10° NNE visible
17 Feb - 21:21:20 10° NW 21:25:26 19° N 21:29:23 10° NE visible
17 Feb - 23:04:13 10° NNW 23:09:30 36° NE 23:14:23 10° ESE visible
18 Feb - 00:46:45 10° NW 00:52:17 61° WSW 00:57:17 10° SSE night (unlit)
18 Feb - 02:32:00 10° W 02:33:24 11° W 02:34:47 10° WSW night (unlit)
18 Feb - 15:23:34 10° S 15:28:57 35° ESE 15:34:18 10° NE daylight
18 Feb - 17:05:12 10° SW 17:11:12 62° NW 17:17:04 10° NE daylight
18 Feb - 18:49:54 10° WNW 18:54:44 24° NNW 18:59:26 10° NNE visible
18 Feb - 20:35:12 10° NW 20:39:09 18° N 20:42:58 10° NE visible
18 Feb - 22:18:34 10° NNW 22:23:28 28° NNE 22:28:03 10° E visible
19 Feb - 00:01:01 10° NW 00:06:41 85° NE 00:11:49 10° SE visible
19 Feb - 01:44:32 10° WNW 01:48:19 19° WSW 01:51:53 10° SSW night (unlit)
19 Feb - 14:39:09 10° SSE 14:43:39 22° ESE 14:48:08 10° ENE daylight
19 Feb - 16:19:23 10° SW 16:25:27 88° NW 16:31:26 10° NE daylight
19 Feb - 18:03:21 10° W 18:08:37 30° NNW 18:13:45 10° NNE visible
19 Feb - 19:48:50 10° NW 19:52:51 18° N 19:56:45 10° NE visible
19 Feb - 21:32:49 10° NNW 21:37:19 23° NNE 21:41:34 10° ENE visible
19 Feb - 23:15:21 10° NW 23:20:57 57° NE 23:26:02 10° ESE visible
20 Feb - 00:58:15 10° NW 01:03:05 32° WSW 01:07:31 10° S night (unlit)
20 Feb - 13:55:42 10° SE 13:58:28 13° ESE 14:01:14 10° ENE daylight
20 Feb - 15:33:54 10° SSW 15:39:51 62° ESE 15:45:43 10° NE daylight
20 Feb - 17:16:57 10° WSW 17:22:37 40° NW 17:28:08 10° NNE daylight
20 Feb - 19:02:17 10° WNW 19:06:35 20° NNW 19:10:45 10° NNE visible
20 Feb - 20:46:56 10° NNW 20:51:05 20° NNE 20:55:03 10° ENE visible
20 Feb - 22:29:43 10° NNW 22:35:04 40° NE 22:39:58 10° ESE visible
21 Feb - 00:12:18 10° NW 00:17:41 53° WSW 00:22:35 10° SSE visible
21 Feb - 14:48:48 10° S 14:54:22 40° ESE 14:59:53 10° NE daylight
21 Feb - 16:30:47 10° WSW 16:36:43 55° NW 16:42:31 10° NE daylight
21 Feb - 18:15:40 10° WNW 18:20:22 23° NNW 18:24:54 10° NNE visible
21 Feb - 20:00:52 10° NW 20:04:49 18° N 20:08:36 10° NE visible
21 Feb - 21:44:03 10° NNW 21:49:03 30° NNE 21:53:41 10° E visible
21 Feb - 23:26:32 10° NW 23:32:09 84° SW 23:37:13 10° SE visible
22 Feb - 01:10:21 10° WNW 01:13:37 17° WSW 01:16:44 10° SW night (unlit)
22 Feb - 14:04:11 10° SSE 14:09:00 26° ESE 14:13:48 10° ENE daylight
22 Feb - 15:44:53 10° SW 15:50:57 80° NW 15:56:54 10° NE daylight
22 Feb - 17:29:04 10° W 17:34:13 28° NNW 17:39:13 10° NNE daylight
22 Feb - 19:14:34 10° NW 19:18:31 18° N 19:22:20 10° NE visible
22 Feb - 20:58:21 10° NNW 21:02:56 24° NNE 21:07:15 10° ENE visible
22 Feb - 22:40:50 10° NW 22:46:27 64° NE 22:51:31 10° SE visible
23 Feb - 00:23:52 10° NW 00:28:25 28° WSW 00:32:38 10° SSW visible
23 Feb - 13:20:22 10° SE 13:23:47 16° ESE 13:27:12 10° ENE daylight
23 Feb - 14:59:17 10° SSW 15:05:18 70° SE 15:11:13 10° NE daylight
23 Feb - 16:42:38 10° WSW 16:48:11 37° NW 16:53:35 10° NNE daylight
23 Feb - 18:28:03 10° NW 18:32:14 19° NNW 18:36:16 10° NE visible
23 Feb - 20:12:31 10° NNW 20:16:44 20° NNE 20:20:43 10° ENE visible
23 Feb - 21:55:12 10° NNW 22:00:36 44° NE 22:05:32 10° ESE visible
23 Feb - 23:37:51 10° NW 23:43:04 45° WSW 23:47:50 10° S visible
24 Feb - 14:14:05 10° S 14:19:47 45° ESE 14:25:25 10° NE daylight
24 Feb - 15:56:23 10° WSW 16:02:15 50° NW 16:07:57 10° NNE daylight
24 Feb - 17:41:26 10° WNW 17:45:59 22° NNW 17:50:24 10° NNE daylight
24 Feb - 19:26:31 10° NW 19:30:27 18° N 19:34:14 10° NE visible
24 Feb - 21:09:33 10° NNW 21:14:38 32° NNE 21:19:19 10° E visible
24 Feb - 22:52:03 10° NW 22:57:35 74° SW 23:02:35 10° SSE visible
25 Feb - 00:36:18 10° WNW 00:38:54 14° WSW 00:41:26 10° SW night (unlit)
25 Feb - 13:29:18 10° S 13:34:23 29° ESE 13:39:25 10° NE daylight
25 Feb - 15:10:24 10° SW 15:16:26 72° NW 15:22:20 10° NE daylight
25 Feb - 16:54:49 10° W 16:59:50 26° NNW 17:04:40 10° NNE daylight
25 Feb - 18:40:16 10° NW 18:44:10 18° N 18:47:54 10° NE visible
25 Feb - 20:23:52 10° NNW 20:28:32 25° NNE 20:32:54 10° E visible
25 Feb - 22:06:20 10° NW 22:11:55 72° NE 22:16:59 10° SE visible
25 Feb - 23:49:32 10° WNW 23:53:45 24° WSW 23:57:41 10° SSW visible
26 Feb - 12:45:11 10° SSE 12:49:07 18° ESE 12:53:02 10° ENE daylight
26 Feb - 14:24:43 10° SSW 14:30:45 79° SE 14:36:41 10° NE daylight
26 Feb - 16:08:19 10° W 16:13:45 34° NNW 16:19:00 10° NNE daylight
26 Feb - 17:53:48 10° NW 17:57:52 19° N 18:01:47 10° NE daylight
26 Feb - 19:38:05 10° NNW 19:42:21 21° NNE 19:46:23 10° ENE visible
26 Feb - 21:20:41 10° NNW 21:26:07 48° NE 21:31:04 10° ESE visible
26 Feb - 23:03:25 10° NW 23:08:27 39° WSW 23:13:03 10° S visible
